Location: Bon Acre
(42.6442°N, 73.5758°W)
Time: 03:29:08
(UTC+00:00)

SL-08 R/B - Pass Details

Date: 14 March 2026
Orbit: 946 x 992 km, 83.0° (Epoch: 13 April)

Event Time Altitude Azimuth Distance (km) Brightness Sun altitude
Exits shadow 03:48:11 14° 306° (NW) 2,416 7.0 -46.5°
Drops below altitude 10° 03:50:19 10° 327° (NNW) 2,675 7.3 -46.7°
Sets 03:54:15 0° 352° (N) 3,624 8.1 -47.0°
